Location: B�rgermoos
(47.6500°N, 9.0667°E)
Time: 17:00:17
(UTC+00:00)

Tiros 1 - Pass Details

Date: 04 August 2021
Orbit: 630 x 663 km, 48.4° (Epoch: 20 September)

Event Time Altitude Azimuth Distance (km) Brightness Sun altitude
Rises 22:45:55 0° 282° (WNW) 2,963 10.8 -24.6°
Reaches altitude 10° 22:49:01 10° 261° (W) 2,041 9.7 -24.7°
Enters shadow 22:49:27 11° 257° (WSW) 1,942 9.6 -24.7°
Maximum altitude 22:51:53 16° 223° (SW) 1,656 - -24.8°
Drops below altitude 10° 22:54:45 10° 185° (S) 2,020 - -24.9°
Sets 22:57:49 0° 164° (SSE) 2,918 - -25.0°
